RRR4252 LKPR-LROP

Flight info

Callsign RRR4252
Flight time 1h 40m
Altitude 31000
Route VOZ DCT LIKSA DCT PEPIK DCT DEGET DCT EKNAB DCT LAMIT DCT TOSVI
Aircraft A400/H-SDE2E3FGHIJ4J5M1RWXY/LB1D1

Departure

Time 2026-05-06 10:44
Airport Václav Havel Airport Prague (LKPR)

Arrival

Time 2026-05-06 12:25
Airport Bucharest Henri Coandă International Airport (LROP)
Time Latitude Longitude Altitude Speed Heading
2026-05-06 10:36 50.10715 14.26039 1185 ft 0 kts 121°
2026-05-06 10:37 50.10705 14.26064 1188 ft 5 kts 121°
2026-05-06 10:37 50.10675 14.26101 1190 ft 6 kts 170°
2026-05-06 10:38 50.10634 14.26072 1192 ft 6 kts 209°
2026-05-06 10:38 50.10601 14.26042 1193 ft 5 kts 210°
2026-05-06 10:38 50.10564 14.26005 1196 ft 9 kts 213°
2026-05-06 10:38 50.10499 14.25989 1198 ft 12 kts 147°
2026-05-06 10:39 50.10444 14.26097 1201 ft 13 kts 127°
2026-05-06 10:39 50.10387 14.26213 1202 ft 14 kts 128°
2026-05-06 10:39 50.10331 14.26325 1204 ft 13 kts 124°
2026-05-06 10:39 50.10278 14.26440 1205 ft 13 kts 127°
2026-05-06 10:40 50.10225 14.26548 1209 ft 12 kts 127°
2026-05-06 10:40 50.10179 14.26641 1212 ft 10 kts 126°
2026-05-06 10:40 50.10130 14.26746 1214 ft 13 kts 126°
2026-05-06 10:40 50.10073 14.26861 1217 ft 14 kts 127°
2026-05-06 10:41 50.10012 14.26987 1218 ft 16 kts 127°
2026-05-06 10:41 50.09942 14.27131 1220 ft 17 kts 126°
2026-05-06 10:41 50.09868 14.27286 1220 ft 19 kts 128°
2026-05-06 10:41 50.09777 14.27428 1223 ft 18 kts 134°
2026-05-06 10:42 50.09693 14.27558 1225 ft 16 kts 135°
2026-05-06 10:42 50.09630 14.27646 1230 ft 4 kts 165°
2026-05-06 10:42 50.09586 14.27616 1233 ft 8 kts 209°
2026-05-06 10:42 50.09543 14.27569 1243 ft 8 kts 217°
2026-05-06 10:43 50.09488 14.27506 1243 ft 11 kts 217°
2026-05-06 10:43 50.09429 14.27429 1233 ft 11 kts 239°
2026-05-06 10:43 50.09458 14.27313 1229 ft 19 kts 307°
2026-05-06 10:44 50.10430 14.25326 1301 ft 189 kts 305°
2026-05-06 10:44 50.11268 14.23674 2234 ft 195 kts 304°
2026-05-06 10:44 50.12080 14.21985 3376 ft 202 kts 303°
2026-05-06 10:44 50.12993 14.20038 3849 ft 242 kts 303°
2026-05-06 10:45 50.14033 14.17847 3973 ft 258 kts 304°
2026-05-06 10:45 50.15132 14.15555 4106 ft 271 kts 304°
2026-05-06 10:45 50.16294 14.13133 4811 ft 282 kts 303°
2026-05-06 10:45 50.17338 14.10622 6058 ft 269 kts 292°
2026-05-06 10:46 50.17838 14.07870 7140 ft 263 kts 272°
2026-05-06 10:46 50.17625 14.05102 8032 ft 261 kts 249°
2026-05-06 10:46 50.16711 14.02651 8951 ft 262 kts 227°
2026-05-06 10:46 50.15342 14.00776 9887 ft 264 kts 216°
2026-05-06 10:47 50.13703 13.99374 10563 ft 275 kts 202°
2026-05-06 10:47 50.11802 13.98771 11275 ft 285 kts 185°
2026-05-06 10:47 50.09811 13.99165 12033 ft 295 kts 167°
2026-05-06 10:47 50.07878 14.00327 12831 ft 301 kts 160°
2026-05-06 10:48 50.05957 14.01693 13679 ft 305 kts 159°
2026-05-06 10:48 50.04024 14.03087 14435 ft 308 kts 159°
2026-05-06 10:48 50.02071 14.04482 15184 ft 310 kts 160°
2026-05-06 10:48 50.00098 14.05876 15944 ft 313 kts 160°
2026-05-06 10:49 49.98101 14.07276 16721 ft 316 kts 160°
2026-05-06 10:49 49.96090 14.08680 17486 ft 318 kts 160°
2026-05-06 10:49 49.94082 14.10078 18189 ft 321 kts 160°
2026-05-06 10:49 49.92033 14.11503 18847 ft 324 kts 160°
2026-05-06 10:50 49.89958 14.12942 19512 ft 328 kts 161°
2026-05-06 10:50 49.87887 14.14450 20174 ft 332 kts 157°
2026-05-06 10:50 49.85911 14.16409 20821 ft 342 kts 148°
2026-05-06 10:50 49.84173 14.18988 21458 ft 353 kts 137°
2026-05-06 10:51 49.82623 14.21989 22044 ft 360 kts 134°
2026-05-06 10:51 49.81106 14.25122 22680 ft 365 kts 133°
2026-05-06 10:51 49.79579 14.28290 23300 ft 369 kts 134°
2026-05-06 10:51 49.78032 14.31483 23797 ft 372 kts 134°
2026-05-06 10:52 49.76465 14.34700 24289 ft 375 kts 134°
2026-05-06 10:52 49.74885 14.37934 24766 ft 378 kts 134°
2026-05-06 10:52 49.73310 14.41149 25266 ft 380 kts 135°
2026-05-06 10:52 49.71707 14.44414 25694 ft 383 kts 135°
2026-05-06 10:53 49.70089 14.47702 26111 ft 386 kts 135°
2026-05-06 10:53 49.68455 14.51018 26523 ft 388 kts 135°
2026-05-06 10:53 49.66839 14.54387 26936 ft 393 kts 132°
2026-05-06 10:53 49.65323 14.57944 27267 ft 399 kts 130°
2026-05-06 10:54 49.63833 14.61581 27614 ft 402 kts 129°
2026-05-06 10:54 49.62340 14.65246 27995 ft 405 kts 130°
2026-05-06 10:54 49.60838 14.68929 28339 ft 407 kts 130°
2026-05-06 10:54 49.59326 14.72624 28697 ft 409 kts 130°
2026-05-06 10:55 49.57802 14.76341 29020 ft 411 kts 130°
2026-05-06 10:55 49.56272 14.80068 29336 ft 413 kts 130°
2026-05-06 10:55 49.54729 14.83817 29630 ft 415 kts 130°
2026-05-06 10:55 49.53223 14.87629 29934 ft 419 kts 127°
2026-05-06 10:56 49.51838 14.91578 30287 ft 420 kts 125°
2026-05-06 10:56 49.50508 14.95576 30597 ft 420 kts 124°
2026-05-06 10:56 49.49206 14.99593 30802 ft 420 kts 123°
2026-05-06 10:57 49.46621 15.07616 30826 ft 421 kts 123°
2026-05-06 10:57 49.44003 15.15660 30825 ft 420 kts 124°
2026-05-06 10:58 49.41370 15.23664 30826 ft 420 kts 124°
2026-05-06 10:58 49.38724 15.31662 30822 ft 419 kts 124°
2026-05-06 10:59 49.36078 15.39634 30828 ft 419 kts 124°
2026-05-06 10:59 49.33431 15.47585 30826 ft 418 kts 124°
2026-05-06 11:00 49.30782 15.55521 30831 ft 418 kts 124°
2026-05-06 11:00 49.28142 15.63402 30834 ft 418 kts 124°
2026-05-06 11:01 49.25478 15.71331 30831 ft 418 kts 124°
2026-05-06 11:01 49.22810 15.79252 30827 ft 417 kts 123°
2026-05-06 11:02 49.20146 15.87134 30827 ft 417 kts 123°
2026-05-06 11:02 49.17497 15.94947 30853 ft 416 kts 124°
2026-05-06 11:03 49.14824 16.02805 30856 ft 416 kts 124°
2026-05-06 11:03 49.12151 16.10640 30836 ft 416 kts 123°
2026-05-06 11:04 49.09463 16.18490 30856 ft 417 kts 123°
2026-05-06 11:04 49.06769 16.26341 30853 ft 417 kts 123°
2026-05-06 11:05 49.04069 16.34183 30852 ft 417 kts 124°
2026-05-06 11:05 49.01380 16.41973 30833 ft 417 kts 124°
2026-05-06 11:06 48.98681 16.49765 30825 ft 416 kts 124°
2026-05-06 11:06 48.95966 16.57574 30837 ft 418 kts 124°
2026-05-06 11:07 48.93241 16.65391 30837 ft 418 kts 124°
2026-05-06 11:07 48.90512 16.73201 30842 ft 418 kts 124°
2026-05-06 11:08 48.87780 16.80993 30845 ft 418 kts 124°
2026-05-06 11:08 48.85056 16.88739 30844 ft 419 kts 123°
2026-05-06 11:09 48.82295 16.96562 30851 ft 420 kts 123°
2026-05-06 11:09 48.79530 17.04380 30859 ft 421 kts 123°
2026-05-06 11:10 48.76332 17.11721 30856 ft 416 kts 131°
2026-05-06 11:10 48.72853 17.18714 30867 ft 415 kts 133°
2026-05-06 11:11 48.69897 17.24504 30863 ft 415 kts 133°
2026-05-06 11:11 48.66387 17.31356 30872 ft 414 kts 133°
2026-05-06 11:12 48.62855 17.38257 30871 ft 415 kts 133°
2026-05-06 11:12 48.59311 17.45178 30869 ft 416 kts 133°
2026-05-06 11:13 48.55767 17.52089 30870 ft 416 kts 133°
2026-05-06 11:13 48.52220 17.58985 30870 ft 415 kts 132°
2026-05-06 11:14 48.48708 17.65797 30876 ft 414 kts 132°
2026-05-06 11:14 48.45170 17.72641 30880 ft 413 kts 133°
2026-05-06 11:15 48.41628 17.79473 30883 ft 413 kts 133°
2026-05-06 11:15 48.38322 17.85857 30888 ft 382 kts 133°
2026-05-06 11:15 48.36737 17.88927 30891 ft 368 kts 133°
2026-05-06 11:16 48.35123 17.92016 30872 ft 383 kts 133°
2026-05-06 11:16 48.33435 17.95222 30881 ft 397 kts 133°
2026-05-06 11:16 48.31696 17.98525 30885 ft 408 kts 133°
2026-05-06 11:17 48.28173 18.05245 30886 ft 413 kts 132°
2026-05-06 11:17 48.24612 18.12048 30892 ft 414 kts 132°
2026-05-06 11:18 48.21050 18.18832 30892 ft 414 kts 132°
2026-05-06 11:18 48.17477 18.25610 30885 ft 414 kts 132°
2026-05-06 11:19 48.13925 18.32330 30895 ft 414 kts 132°
2026-05-06 11:19 48.10346 18.39085 30894 ft 414 kts 132°
2026-05-06 11:20 48.06761 18.45833 30895 ft 414 kts 132°
2026-05-06 11:20 48.03176 18.52564 30900 ft 414 kts 132°
2026-05-06 11:21 47.99584 18.59292 30887 ft 415 kts 132°
2026-05-06 11:21 47.95973 18.66036 30902 ft 416 kts 132°
2026-05-06 11:22 47.92340 18.72808 30892 ft 416 kts 132°
2026-05-06 11:22 47.88739 18.79502 30909 ft 417 kts 132°
2026-05-06 11:23 47.85108 18.86238 30906 ft 417 kts 132°
2026-05-06 11:23 47.81470 18.92967 30906 ft 417 kts 132°
2026-05-06 11:24 47.77827 18.99688 30911 ft 417 kts 132°
2026-05-06 11:24 47.74177 19.06407 30913 ft 417 kts 133°
2026-05-06 11:25 47.70526 19.13112 30923 ft 417 kts 133°
2026-05-06 11:25 47.66872 19.19806 30927 ft 418 kts 133°
2026-05-06 11:26 47.63220 19.26477 30928 ft 419 kts 133°
2026-05-06 11:26 47.59535 19.33193 30932 ft 419 kts 133°
2026-05-06 11:27 47.55856 19.39883 30936 ft 419 kts 133°
2026-05-06 11:27 47.52190 19.46532 30935 ft 419 kts 133°
2026-05-06 11:28 47.48497 19.53215 30932 ft 419 kts 133°
2026-05-06 11:28 47.44806 19.59876 30930 ft 419 kts 133°
2026-05-06 11:29 47.41104 19.66541 30927 ft 419 kts 133°
2026-05-06 11:29 47.37398 19.73196 30925 ft 419 kts 133°
2026-05-06 11:30 47.33693 19.79833 30925 ft 420 kts 133°
2026-05-06 11:30 47.29965 19.86496 30928 ft 420 kts 133°
2026-05-06 11:31 47.26238 19.93141 30920 ft 421 kts 133°
2026-05-06 11:31 47.22534 19.99729 30936 ft 421 kts 133°
2026-05-06 11:32 47.18792 20.06368 30933 ft 421 kts 133°
2026-05-06 11:32 47.15052 20.12989 30942 ft 421 kts 133°
2026-05-06 11:33 47.11306 20.19603 30930 ft 421 kts 133°
2026-05-06 11:33 47.07554 20.26212 30923 ft 421 kts 133°
2026-05-06 11:34 47.03802 20.32805 30933 ft 421 kts 133°
2026-05-06 11:34 47.00066 20.39353 30926 ft 421 kts 133°
2026-05-06 11:35 46.96305 20.45931 30937 ft 421 kts 133°
2026-05-06 11:35 46.92533 20.52509 30934 ft 421 kts 133°
2026-05-06 11:36 46.88766 20.59066 30935 ft 421 kts 133°
2026-05-06 11:36 46.85019 20.65571 30938 ft 421 kts 133°
2026-05-06 11:37 46.81244 20.72109 30939 ft 421 kts 133°
2026-05-06 11:37 46.77467 20.78636 30944 ft 421 kts 133°
2026-05-06 11:38 46.73686 20.85153 30945 ft 420 kts 133°
2026-05-06 11:38 46.69904 20.91656 30942 ft 421 kts 133°
2026-05-06 11:39 46.66106 20.98172 30954 ft 422 kts 133°
2026-05-06 11:39 46.62316 21.04659 30958 ft 422 kts 133°
2026-05-06 11:40 46.58505 21.11167 30958 ft 422 kts 133°
2026-05-06 11:40 46.54689 21.17667 30961 ft 422 kts 133°
2026-05-06 11:41 46.50869 21.24160 30965 ft 422 kts 133°
2026-05-06 11:41 46.47021 21.30609 30968 ft 422 kts 134°
2026-05-06 11:42 46.43165 21.36939 30967 ft 422 kts 134°
2026-05-06 11:42 46.39260 21.43319 30979 ft 423 kts 134°
2026-05-06 11:43 46.35346 21.49712 30984 ft 424 kts 134°
2026-05-06 11:43 46.31434 21.56095 30982 ft 424 kts 134°
2026-05-06 11:44 46.25561 21.65653 30976 ft 424 kts 134°
2026-05-06 11:44 46.21637 21.72020 30982 ft 425 kts 134°
2026-05-06 11:45 46.17692 21.78405 30983 ft 426 kts 134°
2026-05-06 11:45 46.13767 21.84744 30982 ft 426 kts 134°
2026-05-06 11:46 46.09822 21.91101 30981 ft 426 kts 134°
2026-05-06 11:46 46.05865 21.97461 30979 ft 427 kts 134°
2026-05-06 11:47 46.01896 22.03826 30981 ft 428 kts 134°
2026-05-06 11:47 45.97898 22.10223 30979 ft 428 kts 134°
2026-05-06 11:48 45.93908 22.16593 30983 ft 428 kts 134°
2026-05-06 11:48 45.89936 22.22919 30983 ft 428 kts 134°
2026-05-06 11:49 45.85936 22.29274 30979 ft 430 kts 134°
2026-05-06 11:49 45.81921 22.35639 30979 ft 430 kts 134°
2026-05-06 11:50 45.77905 22.41991 30979 ft 430 kts 134°
2026-05-06 11:50 45.73882 22.48339 30976 ft 430 kts 134°
2026-05-06 11:51 45.69752 22.54521 30987 ft 431 kts 136°
2026-05-06 11:51 45.65476 22.60551 30984 ft 431 kts 137°
2026-05-06 11:52 45.61189 22.66555 30979 ft 431 kts 137°
2026-05-06 11:52 45.56935 22.72541 30990 ft 431 kts 137°
2026-05-06 11:53 45.52662 22.78564 30988 ft 431 kts 136°
2026-05-06 11:53 45.48381 22.84590 30992 ft 433 kts 136°
2026-05-06 11:54 45.44083 22.90627 30985 ft 433 kts 136°
2026-05-06 11:54 45.39785 22.96648 30988 ft 433 kts 136°
2026-05-06 11:55 45.35510 23.02624 30997 ft 433 kts 137°
2026-05-06 11:55 45.31199 23.08636 31004 ft 435 kts 136°
2026-05-06 11:56 45.26867 23.14662 30996 ft 435 kts 136°
2026-05-06 11:56 45.22535 23.20676 31004 ft 435 kts 136°
2026-05-06 11:57 45.18227 23.26643 31009 ft 435 kts 136°
2026-05-06 11:57 45.13891 23.32636 31006 ft 435 kts 136°
2026-05-06 11:58 45.10285 23.39407 31004 ft 433 kts 111°
2026-05-06 11:58 45.08508 23.47536 31004 ft 433 kts 103°
2026-05-06 11:59 45.06948 23.55771 31003 ft 433 kts 103°
2026-05-06 11:59 45.06170 23.59893 30810 ft 435 kts 103°
2026-05-06 11:59 45.05388 23.64027 30189 ft 436 kts 103°
2026-05-06 12:00 45.04605 23.68156 29357 ft 435 kts 103°
2026-05-06 12:00 45.03825 23.72253 28915 ft 430 kts 103°
2026-05-06 12:00 45.03059 23.76269 28462 ft 426 kts 103°
2026-05-06 12:00 45.02289 23.80297 27991 ft 422 kts 103°
2026-05-06 12:01 45.01524 23.84297 27520 ft 418 kts 103°
2026-05-06 12:01 45.01021 23.86918 27207 ft 415 kts 103°
2026-05-06 12:01 45.00268 23.90839 26746 ft 411 kts 104°
2026-05-06 12:01 44.99519 23.94731 26279 ft 408 kts 104°
2026-05-06 12:02 44.98777 23.98579 25834 ft 404 kts 104°
2026-05-06 12:02 44.98040 24.02391 25371 ft 400 kts 103°
2026-05-06 12:02 44.97312 24.06152 24919 ft 396 kts 104°
2026-05-06 12:02 44.96587 24.09888 24475 ft 392 kts 104°
2026-05-06 12:03 44.95868 24.13588 24028 ft 389 kts 104°
2026-05-06 12:03 44.95156 24.17245 23586 ft 385 kts 104°
2026-05-06 12:03 44.94447 24.20878 23082 ft 381 kts 104°
2026-05-06 12:03 44.93744 24.24473 22652 ft 378 kts 104°
2026-05-06 12:04 44.93048 24.28029 22212 ft 375 kts 104°
2026-05-06 12:04 44.92355 24.31564 21770 ft 372 kts 104°
2026-05-06 12:04 44.91668 24.35060 21342 ft 369 kts 104°
2026-05-06 12:04 44.90982 24.38542 20914 ft 366 kts 105°
2026-05-06 12:05 44.90303 24.41985 20494 ft 363 kts 104°
2026-05-06 12:05 44.89629 24.45398 20057 ft 360 kts 104°
2026-05-06 12:05 44.88960 24.48779 19636 ft 357 kts 105°
2026-05-06 12:05 44.88295 24.52134 19218 ft 353 kts 105°
2026-05-06 12:06 44.87636 24.55450 18804 ft 349 kts 105°
2026-05-06 12:06 44.86985 24.58723 18384 ft 345 kts 105°
2026-05-06 12:06 44.86347 24.61923 17933 ft 342 kts 105°
2026-05-06 12:06 44.85699 24.65173 17510 ft 339 kts 106°
2026-05-06 12:07 44.85069 24.68321 17115 ft 337 kts 106°
2026-05-06 12:07 44.84426 24.71535 16708 ft 335 kts 105°
2026-05-06 12:07 44.83802 24.74647 16308 ft 333 kts 105°
2026-05-06 12:07 44.83173 24.77776 15910 ft 331 kts 105°
2026-05-06 12:08 44.82546 24.80893 15507 ft 329 kts 105°
2026-05-06 12:08 44.81922 24.83988 15101 ft 327 kts 105°
2026-05-06 12:08 44.81304 24.87050 14702 ft 325 kts 105°
2026-05-06 12:08 44.80684 24.90119 14316 ft 323 kts 105°
2026-05-06 12:09 44.80071 24.93149 13919 ft 322 kts 105°
2026-05-06 12:09 44.79459 24.96168 13493 ft 320 kts 105°
2026-05-06 12:09 44.78850 24.99164 13085 ft 318 kts 105°
2026-05-06 12:09 44.78244 25.02143 12690 ft 316 kts 106°
2026-05-06 12:10 44.77640 25.05112 12305 ft 314 kts 105°
2026-05-06 12:10 44.77036 25.08069 11903 ft 312 kts 105°
2026-05-06 12:10 44.76444 25.10970 11520 ft 310 kts 105°
2026-05-06 12:10 44.75850 25.13876 11137 ft 308 kts 105°
2026-05-06 12:11 44.75174 25.16733 10737 ft 306 kts 110°
2026-05-06 12:11 44.74359 25.19494 10479 ft 301 kts 112°
2026-05-06 12:11 44.73538 25.22145 10283 ft 293 kts 113°
2026-05-06 12:11 44.72723 25.24762 9888 ft 291 kts 113°
2026-05-06 12:12 44.71913 25.27363 9502 ft 290 kts 113°
2026-05-06 12:12 44.71109 25.29947 9145 ft 289 kts 112°
2026-05-06 12:12 44.70302 25.32540 8789 ft 289 kts 113°
2026-05-06 12:12 44.69497 25.35125 8431 ft 287 kts 113°
2026-05-06 12:13 44.68709 25.37656 8077 ft 287 kts 114°
2026-05-06 12:13 44.67907 25.40229 7721 ft 287 kts 112°
2026-05-06 12:13 44.67105 25.42799 7365 ft 288 kts 113°
2026-05-06 12:13 44.66302 25.45372 7000 ft 287 kts 113°
2026-05-06 12:14 44.65497 25.47947 6635 ft 286 kts 113°
2026-05-06 12:14 44.64700 25.50492 6267 ft 285 kts 113°
2026-05-06 12:14 44.63902 25.53034 5892 ft 284 kts 113°
2026-05-06 12:14 44.63109 25.55566 5527 ft 283 kts 113°
2026-05-06 12:15 44.62317 25.58090 5175 ft 281 kts 114°
2026-05-06 12:15 44.61530 25.60595 4890 ft 279 kts 114°
2026-05-06 12:15 44.60750 25.63075 4883 ft 277 kts 114°
2026-05-06 12:15 44.59979 25.65524 4634 ft 271 kts 114°
2026-05-06 12:16 44.59209 25.67965 4185 ft 274 kts 114°
2026-05-06 12:16 44.58441 25.70396 4031 ft 272 kts 114°
2026-05-06 12:16 44.57677 25.72814 4027 ft 269 kts 114°
2026-05-06 12:16 44.56921 25.75211 3998 ft 269 kts 114°
2026-05-06 12:17 44.56169 25.77588 3991 ft 258 kts 114°
2026-05-06 12:17 44.55465 25.79817 3996 ft 243 kts 114°
2026-05-06 12:17 44.55084 25.82026 3989 ft 231 kts 95°
2026-05-06 12:17 44.55015 25.84235 3811 ft 222 kts 91°
2026-05-06 12:18 44.55001 25.86364 3541 ft 217 kts 91°
2026-05-06 12:18 44.54994 25.88472 3230 ft 215 kts 92°
2026-05-06 12:18 44.54988 25.90589 2923 ft 224 kts 91°
2026-05-06 12:18 44.54976 25.92885 2648 ft 243 kts 91°
2026-05-06 12:19 44.54961 25.95285 2318 ft 247 kts 92°
2026-05-06 12:19 44.55237 25.97668 2027 ft 250 kts 76°
2026-05-06 12:19 44.55719 26.00006 1723 ft 249 kts 76°
2026-05-06 12:19 44.56084 26.02388 1328 ft 250 kts 82°
2026-05-06 12:20 44.56264 26.04781 944 ft 242 kts 86°
2026-05-06 12:20 44.56425 26.07061 619 ft 228 kts 84°
2026-05-06 12:20 44.56601 26.09199 502 ft 227 kts 86°
2026-05-06 12:20 44.56765 26.11548 569 ft 256 kts 86°
2026-05-06 12:21 44.56937 26.14018 1510 ft 241 kts 92°
2026-05-06 12:21 44.56290 26.15970 2528 ft 229 kts 140°
2026-05-06 12:21 44.54698 26.16523 2343 ft 253 kts 195°
2026-05-06 12:21 44.53562 26.14795 2132 ft 257 kts 256°
2026-05-06 12:22 44.53434 26.12379 2391 ft 240 kts 264°
2026-05-06 12:22 44.53363 26.10040 2218 ft 242 kts 265°
2026-05-06 12:22 44.53269 26.07730 2190 ft 231 kts 263°
2026-05-06 12:22 44.53173 26.05525 2104 ft 220 kts 265°
2026-05-06 12:23 44.53250 26.03449 1764 ft 212 kts 289°
2026-05-06 12:23 44.54206 26.02044 1464 ft 193 kts 344°
2026-05-06 12:23 44.55339 26.02385 1414 ft 166 kts 47°
2026-05-06 12:23 44.55985 26.03730 940 ft 170 kts 65°
2026-05-06 12:24 44.56294 26.05237 642 ft 153 kts 81°
2026-05-06 12:24 44.56406 26.06685 478 ft 152 kts 88°
2026-05-06 12:24 44.56504 26.08146 358 ft 147 kts 85°
2026-05-06 12:24 44.56588 26.09345 326 ft 96 kts 83°
2026-05-06 12:25 44.56639 26.10020 331 ft 45 kts 84°
2026-05-06 12:25 44.56664 26.10361 329 ft 31 kts 83°
2026-05-06 12:25 44.56689 26.10647 327 ft 27 kts 84°
2026-05-06 12:25 44.56782 26.10765 326 ft 18 kts 355°
2026-05-06 12:26 44.56907 26.10747 329 ft 17 kts 354°
2026-05-06 12:26 44.57013 26.10685 329 ft 15 kts 313°
2026-05-06 12:26 44.57020 26.10670 329 ft 0 kts 304°
2026-05-06 12:26 44.57021 26.10668 328 ft 2 kts 304°
2026-05-06 12:27 44.57038 26.10627 327 ft 8 kts 298°
2026-05-06 12:27 44.57066 26.10527 327 ft 13 kts 279°
2026-05-06 12:27 44.57061 26.10387 328 ft 15 kts 263°
2026-05-06 12:27 44.57049 26.10228 325 ft 17 kts 264°
2026-05-06 12:28 44.57034 26.10057 329 ft 18 kts 264°
2026-05-06 12:28 44.57023 26.09894 330 ft 15 kts 264°
2026-05-06 12:28 44.57012 26.09753 328 ft 14 kts 264°
2026-05-06 12:28 44.57001 26.09603 329 ft 17 kts 264°
2026-05-06 12:29 44.56987 26.09443 328 ft 16 kts 263°
2026-05-06 12:29 44.56974 26.09281 329 ft 17 kts 265°
2026-05-06 12:29 44.56961 26.09102 328 ft 19 kts 264°
2026-05-06 12:29 44.56946 26.08909 326 ft 20 kts 264°
2026-05-06 12:30 44.56924 26.08816 326 ft 5 kts 197°
2026-05-06 12:30 44.56913 26.08817 327 ft 0 kts 175°
2026-05-06 12:30 44.56909 26.08816 327 ft 2 kts 187°
2026-05-06 12:31 44.56885 26.08816 329 ft 5 kts 175°
2026-05-06 12:31 44.56870 26.08818 327 ft 0 kts 175°